Main page
METAR-TAF:

METAR-TAF

Airports :

Boscombe Down, England

MoD Boscombe Down

latitude: 51-10N, longitude: 001-45W, elevation: 124 m

Current weather observation

The report was made 27 minutes ago, at 01:50 UTC
Wind 5 kt from the West/Northwest
Temperature 0°C
Humidity 100%
Pressure 1024 hPa
Visibility 10 km or more

METAR: EGDM 170150Z AUTO 30005KT 9999 NCD 00/00 Q1024

Time: 02:17 (02:17 UTC)


TAF: missing

Weather observations and forecasts of more than 4000 airports (METAR and TAF reports).

The available stations are represented by yellow and red dots on the map.

Hover mouse over dot to see the name of the station.

Then click to see weather observations and forecasts.

To change the map : click on the green buttons with a black cross to zoom in, on the green button with a dash to zoom out, or on the green arrows for adjacent maps.


METAR-TAF: